P/2011 R3 ( Novichonok-Gerke )

Japanese version
Home page
Updated on May 7, 2015

---------------------------------------------------------------------

* Profile

Discovery Date September 7, 2011
Magnitude 18.9 mag
Discoverer Artyom O. Novichonok and Vladimir V. Gerke (TAU station of the Ka-Dar Observatory, near Nizhniy Arkhyz, Russia)

* Pictures

* Orbital Elements

Epoch 2012 Mar. 14.0 TT = JDT 2456000.5
T 2012 Apr. 3.10777 TT                                  MPC
q   3.5577502            (2000.0)            P               Q
n   0.09215463     Peri.  225.19236     +0.56919521     -0.81995512
a   4.8542776      Node   190.62115     +0.81621993     +0.57240601
e   0.2670897      Incl.   19.24411     +0.09900423     -0.00499637
P  10.7
From 408 observations 2011 Sept. 7-2014 Apr. 17, mean residual 0".6.

* Magnitudes Graph

        m1 = 10.0 + 5 log d + 10.0 log r

---------------------------------------------------------------------

The orbital elements are published on M.P.E.C. 2014-T44.
The magnitudes graphs are made with Comet for Windows.

---------------------------------------------------------------------

Copyright(C) Seiichi Yoshida (comet@aerith.net). All rights reserved.